Location: Boley
(53.1150°N, 8.2269°W)
Time: 02:07:35
(UTC+00:00)

Meteor 1-26 Rocket - Pass Details

Date: 15 May 2026
Orbit: 806 x 926 km, 81.3° (Epoch: 8 June)

Event Time Altitude Azimuth Distance (km) Brightness Sun altitude
Exits shadow 22:52:00 19° 181° (S) 1,882 5.5 -14.8°
Maximum altitude 22:56:01 74° 100° (E) 892 4.2 -15.1°
Drops below altitude 10° 23:01:45 10° 16° (NNE) 2,535 7.5 -15.4°
Sets 23:04:15 0° 15° (NNE) 3,496 8.3 -15.5°
